Flag for U.S.A. Weather past 2 weeks in Provo, Utah, U.S.A.

Now
79 °F

Partly sunny.


Feels Like: 80 °F
Forecast: 61 / 85 °F
Wind: 9 mph from Northwest

Location: Provo Municipal

Current Time: Jul 31, 2014 at 8:17:32 PM

Latest Report: Jul 31, 2014 at 7:50 PM


Visibility: 15 mi

Pressure: 30.13 "Hg

Humidity: 48%

Dew point: 57 °F

Location of ProvoLocation

Historic Weather in Provo — Graph

°F

Provo temperature yesterday

Maximum temperature yesterday: 79 °F (at 2:48 PM)
Minimum temperature yesterday: 63 °F (at 12:55 AM)
Average temperature yesterday: 69 °F

Past Weeks' High & Low Weather Summary

 TemperatureHumidityPressure
High100 °F (Jul 23, 4:47 PM)88% (Jul 29, 4:35 AM)30.27 "Hg (Jul 29, 4:35 AM)
Low59 °F (Jul 31, 6:35 AM)11% (Jul 22, 5:54 PM)29.95 "Hg (Jul 17, 8:54 PM)
Average73 °F47%30.11 "Hg
* Reported Jul 16 6:47 PM — Jul 31 6:48 PM, Provo, Weather by CustomWeather, © 2014

Note: Actual official high and low records may vary slightly from our data, if they occured in-between our weather recording intervals... More about our weather records

Advertising

Provo weather history for previous 24 hours

 ConditionsComfort  
Time TempWeatherWind HumidityBarometerVisibility
6:48 PM
Jul 31
79 °FPartly sunny.9 mph51%30.14 "Hg15 mi
5:50 PM75 °FBroken clouds.6 mph47%30.14 "Hg15 mi
4:53 PM81 °FBroken clouds.7 mph48%30.14 "Hg15 mi
3:55 PM82 °FPassing clouds.7 mph35%30.14 "Hg15 mi
2:57 PM81 °FPassing clouds.7 mph39%30.17 "Hg15 mi
1:47 PM79 °FPassing clouds.5 mph42%30.20 "Hg15 mi
12:47 PM75 °FPassing clouds.3 mph50%30.21 "Hg15 mi
11:56 AM75 °FPassing clouds.7 mph54%30.22 "Hg15 mi
10:49 AM72 °FScattered clouds.5 mph57%30.23 "Hg15 mi
9:59 AM73 °FScattered clouds.6 mph50%30.23 "Hg15 mi
8:49 AM70 °FScattered clouds.No wind57%30.23 "Hg15 mi
7:49 AM64 °FScattered clouds.No wind68%30.23 "Hg15 mi
6:50 AM59 °FPassing clouds.No wind82%30.21 "Hg15 mi
6:35 AM59 °FClear.3 mph82%30.21 "Hg10 mi
6:15 AM61 °FClear.5 mph77%30.21 "Hg10 mi
5:55 AM61 °FPassing clouds.No wind83%30.20 "Hg10 mi
5:35 AM63 °FClear.3 mph73%30.20 "Hg10 mi
5:15 AM63 °FClear.No wind68%30.20 "Hg10 mi
4:55 AM64 °FPassing clouds.8 mph64%30.19 "Hg10 mi
4:35 AM66 °FPassing clouds.9 mph60%30.20 "Hg10 mi
4:15 AM66 °FPassing clouds.13 mph60%30.20 "Hg10 mi
3:55 AM64 °FPassing clouds.8 mph68%30.20 "Hg10 mi
3:35 AM64 °FPassing clouds.7 mph73%30.21 "Hg10 mi
3:15 AM63 °FPassing clouds.No wind77%30.21 "Hg10 mi
2:55 AM63 °FPassing clouds.3 mph73%30.20 "Hg10 mi
2:35 AM64 °FPassing clouds.No wind68%30.21 "Hg10 mi
2:15 AM64 °FPassing clouds.No wind64%30.21 "Hg10 mi
1:55 AM63 °FClear.No wind73%30.20 "Hg10 mi
1:35 AM64 °FClear.5 mph73%30.20 "Hg10 mi
1:15 AM66 °FClear.3 mph68%30.21 "Hg10 mi
12:55 AM66 °FClear.No wind68%30.21 "Hg9 mi
12:35 AM66 °FPassing clouds.No wind64%30.21 "Hg10 mi
12:15 AM70 °FClear.6 mph57%30.21 "Hg10 mi
11:55 PM
Jul 30
72 °FClear.10 mph53%30.21 "Hg10 mi
11:35 PM72 °FClear.10 mph57%30.21 "Hg10 mi
11:15 PM70 °FClear.8 mph57%30.21 "Hg10 mi
10:55 PM72 °FClear.No wind50%30.21 "Hg10 mi
10:35 PM72 °FClear.No wind53%30.20 "Hg10 mi
10:15 PM72 °FClear.No wind57%30.20 "Hg10 mi
9:55 PM72 °FClear.5 mph57%30.19 "Hg10 mi
9:35 PM72 °FSunny.7 mph53%30.18 "Hg10 mi
9:15 PM73 °FSunny.8 mph50%30.17 "Hg10 mi
8:52 PM73 °FScattered clouds.5 mph50%30.17 "Hg15 mi
Weather by CustomWeather, © 2014

See weather overviewHow to use our weather pages